Погода в Худжанде

Погода в Худжанде : погода сейчас, прогноз погоды и архив. Всё, что Вы хотите узнать о погоде в Худжанде!

Поиск расширенной информации на нашем сайте:

Другие новости

Новости СМИ2

Главная страница сайта

Новости сайта

03.07.2017

Напоминаем, что на нашем специализированном сайте Метеоцентр.Азия вы можете получить высокодетализированные автоматические прогнозы погоды по пунктам России, СНГ и мира в авиационном формате (включающие направление и скорость ветра, видимость, явления погоды, количество и форму облачности, нижнюю и верхнюю границу облачности).

Рекомендуем: Как разбавить дресс-код?

Погода в Худжанде - сегодня

Время (UTC), дата Ветер
(°,м/с) 
Видим.   Явления Облачность Т
(°С)
Тd
(°С)
f(%) Тe
(°С)
Pmin
(гПа)
dP
(гПа)
Po
(мм)
O2
(г/м3)
Тmin Tmax R s Состояние
почвы
03 17.10.17 070 (В) 4000 м  дымка  ясно 
+16 +9.2 64 +16  1013.2  -0.1  723  273  +14         
06 17.10.17 060 (СВ) 10 км    ясно 
+21.8 +4.4 32 +22  1010.7  -1.5  722  269  +11.1         
09 17.10.17 070 (В) 10  20000 м    ясно 
+24 +5.4 30 +24  1008.2  -2  720  266           
12 17.10.17 070 (В) 20000 м    1/0 средняя 
[Ac trans]
+21.3 +6.8 39 +21  1007.4  -1.2  719  268           
15 17.10.17 080 (В) 10 км    5/0 средняя 
[Ac trans]
+19.6 +6.4 42 +20  1007.7  719  269    +24.5       
18 17.10.17 060 (СВ) 10 км    10/0 средняя, верхняя 
[Ac trans|Ci fib]
+20 +4.9 37 +20  1007.1  -0.5  719  269  +24.5         
21 17.10.17 260 (З) 8{17}  2000 м  мгла  10/4 1000 м кучево-дожд., средняя 
[Cb cap|Ac und]
+15.2 +7.5 60 +14  1016.2  7.8  725  275           
00 18.10.17 250 (З) 10 км    10/3 1380 м кучево-дожд., средняя 
[Cb cap|Ac und]
+11.1 +6.3 72 +9  1017.8  0.9  725  280           
03 18.10.17 270 (З) 20000 м  слаб. ливневой дождь  10/5 1500 м кучево-дожд., средняя 
[Cb cap|Ac und]
+9.6 +3.6 66 +7  1022.3  728  283      0.0     
06 18.10.17 240 (ЮЗ) 10 км  слаб. ливневой дождь  10/8 1000 м кучево-дожд., средняя 
[Cb cap|Ac und]
+8.9 +4.7 75 +7  1024.5  730  284  +0.9    0.0     
09 18.10.17 240 (ЮЗ) 10 км  слаб. ливневой дождь  10/8 1500 м кучево-дожд., средняя 
[Cb cap|Ac und]
+11.5 +3.8 59 +11  1024.1  730  282           
12 18.10.17 210 (ЮЗ) 20000 м  {ливн. осадки}  8/3 1500 м кучево-дожд., средняя 
[Cb cap|Ac cast]
+12.1 +4.3 59 +12  1024.5  0.5  730  281           
15 18.10.17 200 (Ю) 10 км    10/4 600 м кучево-дожд., средняя 
[Cb cap|Ac und]
+11 +6.2 72 +11  1026.1  1.4  731  282    +20.2  0.6     
18 18.10.17 тихо ()   10 км    8/3 2000 м кучево-дожд., средняя 
[Cb cap|Ac trans]
+8.5 +5.3 80 +9  1027  0.4  732  285    +20.2  0.6     
21 18.10.17 080 (В) 10 км    9/0 кучево-дожд., средняя 
[Cb cap|Ac trans]
+9.8 +6.3 79 +10  1028.4  1.6  733  284           
00 19.10.17 080 (В) 10 км    5/1 2000 м кучево-дожд., верхняя 
[Cb cap|Cs]
+8.2 +4.8 79 +8  1029.5  0.7  733  286           
03 19.10.17 060 (СВ) 20000 м    1/0 верхняя 
[Ci fib]
+10.1 +5.3 72 +10  1030.8  1.6  735  285  +7.7         
06 19.10.17 070 (В) 20000 м    ясно 
+14.2 +2.5 45 +13  1030.7  0.6  735  281  +7.7         
09 19.10.17 070 (В) 20000 м    1/0 средняя 
[Ac trans]
+16.6 +2.3 38 +16  1028.8  -1.4  734  278           
12 19.10.17 050 (СВ) 20000 м    1/0 средняя 
[Ac trans]
+15.7 +3.8 45 +16  1029.4  0.4  734  279           
15 19.10.17 070 (В) 10 км    ясно 
+11.9 +3.4 56 +12  1030.7  0.6  735  283    +17.1       
18 19.10.17 080 (В) 10 км    ясно 
+11.8 +5.7 66 +12  1030.2  -0.5  734  283    +17.1       
21 19.10.17 060 (СВ) 10 км    ясно 
+12 +3.8 57 +11  1028.7  -1.4  733  282           
00 20.10.17 090 (В) 10 км    ясно 
+9 +4.5 73 +8  1027.7  -1.5  732  285           
03 20.10.17 080 (В) 20000 м    ясно 
+10.6 +5.2 69 +9  1026.4  -0.9  732  283  +8.8         
Время (UTC), дата Ветер
(°,м/с) 
Видим.   Явления Облачность Т
(°С)
Тd
(°С)
f(%) Тe
(°С)
Pmin
(гПа)
dP
(гПа)
Po
(мм)
O2
(г/м3)
Тmin Tmax R s Состояние
почвы

Для получения пояснительной информации подведите курсор к названию столбца.

ПОГОДА в Худжанде - архив

Всё, что Вы хотите узнать о погоде в Худжанде - удобно и подробно!

Выберите нужную дату (начиная с 1 января 2015* года) и нажмите кнопку "Найти".
Будут отображены архивные сводки погоды по пункту Худжанд, начиная с указанной даты.


Отображать данные в формате CSV (для использования в таблицах Excel)


Внимание! Наш архив погоды предназначен исключительно для личного некоммерческого использования в познавательных целях. Если Вам необходимы официальные справки о состоянии погоды (для производственных, юридических, коммерческих и т.п. целей), обращайтесь в органы Росгидромета.

*Примечание: данная дата относится к архиву по метеостанциям СССР (Россия, СНГ, Балтия).
Архив по метеостанциям Зарубежной Европы и Азии (кроме Китая) хранится 10 дней, по другим регионам земного шара (Китай, Африка, Америка, Австралия, Океания) - 1 день.

Худжанд - район местоположения метеостанции


Название, широта, долгота, высота метеостанции:
Худжанд 40.2°ш. 69.7°д. 427 м над ур. моря [Таджикистан]

Дополнительная информация

В oтличие oт бoльшинства пoгoдных сайтoв мы публикуем пoдрoбную метеoинфoрмацию в детальнoм прoфессиoнальнoм фoрмате.

Характеристики температуры и влажнoсти вoздуха измеряются на высoте 2 м в тени вдали oт зданий и деревьев.
Скoрoсть ветра измеряется на высoте 10 м (на урoвне рoста челoвека скoрoсть ветра ниже в 1.5-2 раза). Если метеoстанция нахoдится в гoрoде или в лесу, тo скoрoсть ветра занижена на 2-4 м/с пo сравнению с oткрытым местoм. Скoрoсть ветра над акватoриями крупных рек и oзёр, а также на вершинах хoлмoв на 2-5 м/с выше, чем в oбычных услoвиях.
Атмoсфернoе давление в разных тoчках местнoсти мoжет значительнo oтличаться oт давления на метеoстанции, в зависимoсти oт услoвий рельефа (при пoдъёме на 10 м давление пoнижается примернo на 1 мм рт.ст.).